Content
SEND FEEDBACK

Daily
Averages
Monthly
Summary
United States of America

INARAJAN, GUAM


Home > North America > United States > Guam
Elevation: 280 feet     Latitude: 13 18N     Longitude: 144 44E

WEATHER
 
SELECT A DAY
Number of Records: 356,690;   Date Range: 1/1/95 - 12/20/14
 
SHARE

PRINT THIS DATA

[ ← Previous Day ]
WEATHER ALMANAC - APRIL 28, 2014
[ Next Day → ]
[ °C ]   °F
Weather ElementAverageHighLow
Temperature79.7 °F82.4 °F (1:03 pm)77 °F (1:50 am)
Dewpoint74.9 °F77.2 °F (8:58 am)73.4 °F (1:50 am)
Humidity85.7 %94 % (2:03 am)74 % (1:23 pm)
Barometer29.79 in29.84 in (9:10 am)29.71 in (3:58 pm)
Wind Speed10.1 mph16.1 mph (10:20 am)
Wind Gust21.9 mph (10:20 am)
Weather ElementAverage
Visibility9.2 mi
Wind DirectionESE (98.3 °)

Weather ElementTotal
Precipitation0.01 in
Cooling Degree Days14.7 (Base 65)
Growing Degree Days29.7 (Base 50)
Averaged from 93 records on April 28, 2014
WEATHER CONDITIONS BREAKOUT
WIND DIRECTION BREAKOUT
WEATHER BY HOUR - APRIL 28, 2014
[ °C ]   °F
Local TimeTemperatureDewpointHumidityBarometerVisibilityWind DirectionWind SpeedGust SpeedPrecipitationEventsConditions
1:50 AM77.0 °F73.4 °F89 %29.77 in10.0 miNE (50°)12.7 mphMostly Cloudy
1:55 AM77.0 °F73.4 °F89 %29.77 in10.0 miENE (60°)10.4 mphMostly Cloudy
1:58 AM77.5 °F74.1 °F89 %29.74 in10.0 miENE (60°)10.4 mphMostly Cloudy
2:03 AM77.0 °F75.2 °F94 %29.77 in10.0 miENE (60°)10.4 mphMostly Cloudy
2:08 AM77.0 °F73.4 °F89 %29.77 in10.0 miNE (50°)10.4 mphMostly Cloudy
2:13 AM77.0 °F73.4 °F89 %29.77 in10.0 miNE (50°)10.4 mphMostly Cloudy
2:18 AM77.0 °F73.4 °F89 %29.77 in10.0 miENE (60°)10.4 mphMostly Cloudy
2:58 AM77.9 °F74.1 °F88 %29.74 in10.0 miENE (60°)9.2 mphMostly Cloudy
3:43 AM78.8 °F75.2 °F89 %29.76 in10.0 miNE (40°)10.4 mphMostly Cloudy
3:48 AM78.8 °F75.2 °F89 %29.76 in10.0 miNE (40°)9.2 mphMostly Cloudy
3:53 AM78.8 °F75.2 °F89 %29.76 in10.0 miNE (40°)9.2 mphScattered Clouds
3:58 AM77.9 °F74.8 °F90 %29.73 in10.0 miNE (40°)9.2 mphScattered Clouds
4:58 AM78.1 °F74.5 °F89 %29.74 in10.0 miNE (50°)10.4 mphMostly Cloudy
5:23 AM78.8 °F75.2 °F89 %29.78 in10.0 miNE (40°)9.2 mphScattered Clouds
5:28 AM78.8 °F75.2 °F89 %29.78 in10.0 miNE (40°)10.4 mphMostly Cloudy
5:33 AM78.8 °F75.2 °F89 %29.78 in10.0 miNE (40°)10.4 mphMostly Cloudy
5:38 AM78.8 °F75.2 °F89 %29.78 in10.0 miNE (50°)10.4 mphMostly Cloudy
5:58 AM78.3 °F74.1 °F87 %29.75 in10.0 miNE (50°)12.7 mphMostly Cloudy
6:13 AM78.8 °F73.4 °F83 %29.78 in10.0 miNE (50°)11.5 mphScattered Clouds
6:18 AM78.8 °F73.4 °F83 %29.78 in10.0 miNE (40°)11.5 mphMostly Cloudy
6:23 AM78.8 °F75.2 °F89 %29.78 in10.0 miNE (40°)12.7 mphRainLight Rain
6:33 AM78.8 °F75.2 °F89 %29.79 in10.0 miNE (50°)12.7 mphMostly Cloudy
6:38 AM78.8 °F75.2 °F89 %29.79 in10.0 miNE (50°)11.5 mphScattered Clouds
6:58 AM79.5 °F74.7 °F85 %29.76 in10.0 miENE (60°)12.7 mph0.00 inScattered Clouds
7:33 AM80.6 °F75.2 °F84 %29.80 in10.0 miNE (40°)11.5 mphMostly Cloudy
7:38 AM80.6 °F75.2 °F84 %29.80 in10.0 miNE (40°)10.4 mphMostly Cloudy
7:43 AM80.6 °F75.2 °F84 %29.80 in10.0 miNE (50°)12.7 mphMostly Cloudy
7:53 AM80.6 °F75.2 °F84 %29.81 in10.0 miNE (40°)10.4 mphMostly Cloudy
7:58 AM80.4 °F75.2 °F84 %29.78 in10.0 miNE (40°)13.8 mphMostly Cloudy
8:03 AM80.6 °F75.2 °F84 %29.81 in10.0 miNE (40°)12.7 mphMostly Cloudy
8:08 AM80.6 °F75.2 °F84 %29.81 in10.0 miNE (50°)11.5 mphMostly Cloudy
8:13 AM80.6 °F75.2 °F84 %29.82 in10.0 miEast (90°)12.7 mphMostly Cloudy
8:18 AM78.8 °F75.2 °F89 %29.82 in10.0 miEast (80°)11.5 mphMostly Cloudy
8:53 AM80.6 °F77.0 °F89 %29.83 in10.0 miENE (70°)8.1 mphMostly Cloudy
8:58 AM80.8 °F77.2 °F89 %29.81 in10.0 miEast (80°)12.7 mphMostly Cloudy
9:10 AM80.6 °F75.2 °F84 %29.84 in9.0 miENE (70°)13.8 mphRainLight Rain
9:15 AM80.6 °F77.0 °F89 %29.84 in9.0 miENE (60°)12.7 mphLight Drizzle
9:20 AM80.6 °F77.0 °F89 %29.83 in10.0 miENE (70°)13.8 mphLight Drizzle
9:25 AM80.6 °F77.0 °F89 %29.84 in10.0 miENE (70°)13.8 mphMostly Cloudy
9:30 AM80.6 °F77.0 °F89 %29.84 in10.0 miENE (60°)12.7 mphMostly Cloudy
9:35 AM80.6 °F77.0 °F89 %29.83 in10.0 miENE (70°)13.8 mphMostly Cloudy
9:40 AM80.6 °F75.2 °F84 %29.83 in10.0 miNE (50°)13.8 mphMostly Cloudy
9:45 AM80.6 °F73.4 °F79 %29.83 in10.0 miENE (60°)12.7 mphScattered Clouds
9:58 AM81.1 °F74.1 °F79 %29.81 in10.0 miNNE (30°)12.7 mph0.00 inScattered Clouds
10:18 AM80.6 °F75.2 °F84 %29.83 in10.0 miENE (60°)12.7 mphMostly Cloudy
10:20 AM80.6 °F77.0 °F89 %29.83 in9.0 miENE (60°)16.1 mph21.9 mphRainLight Rain
10:25 AM78.8 °F77.0 °F94 %29.83 in7.0 miENE (70°)13.8 mph21.9 mphRainLight Rain
10:30 AM78.8 °F77.0 °F94 %29.83 in9.0 miENE (70°)13.8 mph21.9 mphRainLight Rain
10:33 AM78.8 °F77.0 °F94 %29.83 in10.0 miENE (70°)13.8 mphMostly Cloudy
10:38 AM80.6 °F77.0 °F89 %29.83 in10.0 miENE (60°)12.7 mphMostly Cloudy
10:43 AM80.6 °F77.0 °F89 %29.83 in10.0 miENE (60°)15.0 mphLight Drizzle
10:48 AM80.6 °F77.0 °F89 %29.82 in10.0 miENE (70°)11.5 mphLight Drizzle
10:53 AM80.6 °F75.2 °F84 %29.82 in10.0 miENE (70°)13.8 mphLight Drizzle
10:55 AM80.6 °F75.2 °F84 %29.82 in10.0 miENE (60°)12.7 mphMostly Cloudy
10:58 AM80.6 °F75.2 °F84 %29.79 in10.0 miENE (70°)12.7 mph0.01 inScattered Clouds
11:58 AM81.9 °F74.5 °F78 %29.79 in10.0 miNE (50°)9.2 mphMostly Cloudy
12:58 PM82.0 °F74.5 °F78 %29.76 in10.0 miNNE (30°)9.2 mphMostly Cloudy
1:03 PM82.4 °F75.2 °F79 %29.79 in10.0 miNNE (20°)8.1 mphMostly Cloudy
1:23 PM82.4 °F73.4 °F74 %29.79 in10.0 miNE (50°)8.1 mphMostly Cloudy
1:48 PM82.4 °F73.4 °F74 %29.78 in10.0 miNE (40°)12.7 mphMostly Cloudy
1:53 PM82.4 °F73.4 °F74 %29.78 in10.0 miNE (50°)11.5 mphMostly Cloudy
1:58 PM81.9 °F73.8 °F76 %29.75 in10.0 miNE (50°)9.2 mphMostly Cloudy
2:03 PM82.4 °F73.4 °F74 %29.77 in10.0 miENE (60°)9.2 mphMostly Cloudy
2:08 PM82.4 °F73.4 °F74 %29.77 in10.0 miENE (70°)9.2 mphMostly Cloudy
2:58 PM81.5 °F74.1 °F78 %29.72 in9.0 miNNE (30°)8.1 mphClear
3:58 PM80.4 °F74.8 °F83 %29.71 in9.0 miNorth (360°)8.1 mphScattered Clouds
4:03 PM80.6 °F75.2 °F84 %29.74 in8.0 miVariable5.8 mphMostly Cloudy
4:58 PM80.1 °F74.3 °F82 %29.72 in8.0 miNorth (10°)8.1 mphMostly Cloudy
5:48 PM80.6 °F73.4 °F79 %29.76 in10.0 miNE (40°)9.2 mphMostly Cloudy
5:53 PM80.6 °F75.2 °F84 %29.77 in10.0 miNNE (30°)8.1 mphMostly Cloudy
5:58 PM80.6 °F75.2 °F84 %29.74 in10.0 miNorth (10°)6.9 mphMostly Cloudy
6:03 PM80.6 °F75.2 °F84 %29.77 in10.0 miNNE (20°)8.1 mphMostly Cloudy
6:18 PM78.8 °F75.2 °F89 %29.77 in10.0 miNorth (350°)6.9 mphMostly Cloudy
6:23 PM78.8 °F75.2 °F89 %29.78 in10.0 miNorth (10°)8.1 mphMostly Cloudy
6:28 PM78.8 °F75.2 °F89 %29.78 in10.0 miNorth (360°)5.8 mphMostly Cloudy
6:38 PM78.8 °F73.4 °F83 %29.78 in10.0 miNorth (10°)6.9 mphScattered Clouds
6:58 PM79.0 °F73.9 °F84 %29.76 in10.0 miNorth (10°)5.8 mphPartly Cloudy
7:28 PM78.8 °F73.4 °F83 %29.79 in6.0 miNorth (360°)6.9 mphHaze
7:33 PM78.8 °F75.2 °F89 %29.79 in5.0 miNorth (360°)6.9 mphHaze
7:38 PM78.8 °F75.2 °F89 %29.79 in5.0 miNorth (360°)6.9 mphHaze
7:43 PM78.8 °F75.2 °F89 %29.79 in6.0 miNorth (360°)6.9 mphHaze
7:58 PM79.7 °F74.5 °F84 %29.77 in9.0 miNorth (10°)6.9 mphMostly Cloudy
8:18 PM78.8 °F75.2 °F89 %29.81 in6.0 miNorth (10°)6.9 mphHaze
8:23 PM78.8 °F73.4 °F83 %29.81 in6.0 miNorth (10°)6.9 mphHaze
8:28 PM78.8 °F75.2 °F89 %29.81 in6.0 miNorth (350°)6.9 mphHaze
8:33 PM78.8 °F73.4 °F83 %29.80 in6.0 miNNW (340°)5.8 mphHaze
8:38 PM78.8 °F73.4 °F83 %29.81 in6.0 miNW (320°)4.6 mphHaze
8:44 PM78.8 °F75.2 °F89 %29.81 in7.0 miNW (320°)5.8 mphRainLight Rain
8:54 PM78.8 °F75.2 °F89 %29.81 in6.0 miNNW (340°)5.8 mphMostly Cloudy
8:58 PM78.4 °F75.0 °F89 %29.78 in5.0 miNNW (340°)4.6 mph0.00 inScattered Clouds
9:58 PM78.3 °F75.0 °F90 %29.79 in7.0 miNW (320°)5.8 mphMostly Cloudy
10:58 PM78.4 °F74.3 °F87 %29.79 in7.0 miNW (310°)5.8 mphScattered Clouds
11:58 PM78.3 °F74.3 °F88 %29.77 in10.0 miNW (320°)6.9 mphScattered Clouds
Hourly data recorded from PGUA, located miles away from Inarajan, Guam







STORIES FROM OUR PARTNERS